Flag for United Kingdom Weather past 2 weeks in Derby, England, United Kingdom

41 °F

Rain. Passing clouds.

Feels Like: 36 °F
Forecast: 41 / 55 °F
Wind: 8 mph from Southwest

Location: East Midlands

Current Time: Nov 30, 2015 at 7:17:35 AM

Latest Report: Nov 30, 2015 at 6:20 AM

Visibility: 5 mi

Pressure: 29.92 "Hg

Humidity: 93%

Dew point: 39 °F

Location of DerbyLocation

Historic Weather in Derby — Graph


Derby temperature yesterday

Maximum temperature yesterday: 54 °F (at 12:50 PM)
Minimum temperature yesterday: 43 °F (at 8:50 PM)
Average temperature yesterday: 48 °F

Past Weeks' High & Low Weather Summary

High59 °F (Nov 15, 10:50 AM)100% (Nov 17, 1:20 AM)30.24 "Hg (Nov 17, 1:20 AM)
Low27 °F (Nov 21, 7:50 PM)57% (Nov 30, 12:20 AM)29.33 "Hg (Nov 17, 3:20 PM)
Average45 °F84%29.80 "Hg
* Reported Nov 15 5:20 AM — Nov 30 5:20 AM, Derby, Weather by CustomWeather, © 2015

Note: Actual official high and low records may vary slightly from our data, if they occured in-between our weather recording intervals... More about our weather records


Derby weather history for previous 24 hours

Time TempWeatherWind HumidityBarometerVisibility
5:20 AM
Mon, Nov 30
43 °FLight rain. Passing clouds.12 mph81%29.95 "HgN/A
4:50 AM45 °FLight rain. Passing clouds.18 mph71%29.98 "HgN/A
4:20 AM43 °FClear.12 mph71%29.98 "Hg10 mi
3:20 AM41 °FClear.10 mph70%29.98 "Hg10 mi
2:50 AM41 °FClear.9 mph70%29.98 "Hg10 mi
2:20 AM41 °FClear.13 mph66%29.98 "Hg10 mi
12:20 AM43 °FClear.18 mph57%29.95 "Hg10 mi
11:50 PM
Sun, Nov 29
43 °FClear.21 mph66%29.92 "Hg10 mi
10:50 PM43 °FClear.25 mph66%29.89 "Hg10 mi
10:20 PM43 °FClear.25 mph71%29.89 "Hg10 mi
9:50 PM43 °FClear.22 mph76%29.86 "Hg10 mi
9:20 PM43 °FClear.24 mph76%29.83 "Hg10 mi
8:50 PM43 °FClear.25 mph76%29.83 "Hg10 mi
8:20 PM45 °FSprinkles. Passing clouds.36 mph71%29.80 "HgN/A
7:50 PM45 °FSprinkles. Passing clouds.28 mph76%29.80 "HgN/A
7:20 PM45 °FSprinkles. Passing clouds.21 mph81%29.77 "HgN/A
6:50 PM48 °FPassing clouds.26 mph66%29.74 "HgN/A
6:20 PM48 °FClear.30 mph66%29.68 "Hg10 mi
5:50 PM50 °FClear.23 mph67%29.68 "Hg10 mi
5:20 PM50 °FPassing clouds.28 mph62%29.65 "HgN/A
4:50 PM50 °FPassing clouds.26 mph62%29.62 "HgN/A
4:20 PM52 °FPartly cloudy.25 mph67%29.59 "HgN/A
3:50 PM52 °FScattered showers. Broken clouds.30 mph72%29.59 "HgN/A
3:20 PM52 °FDrizzle. Partly sunny.37 mph77%29.56 "HgN/A
2:50 PM54 °FScattered showers. Partly sunny.35 mph72%29.53 "HgN/A
2:20 PM54 °FScattered showers. Partly sunny.35 mph77%29.53 "HgN/A
1:50 PM54 °FScattered showers. Partly sunny.31 mph72%29.50 "HgN/A
1:20 PM54 °FScattered showers. Partly sunny.31 mph72%29.50 "HgN/A
12:50 PM54 °FScattered showers. Partly sunny.30 mph72%29.53 "HgN/A
12:20 PM52 °FBroken clouds.28 mph77%29.53 "HgN/A
11:50 AM52 °FBroken clouds.26 mph77%29.53 "HgN/A
11:20 AM52 °FBroken clouds.26 mph77%29.53 "HgN/A
10:50 AM50 °FSprinkles. Passing clouds.28 mph82%29.53 "HgN/A
9:50 AM50 °FPassing clouds.26 mph82%29.56 "HgN/A
9:20 AM48 °FLight rain. Scattered clouds.23 mph87%29.56 "HgN/A
8:50 AM48 °FLight rain. Scattered clouds.24 mph87%29.56 "HgN/A
8:20 AM48 °FPassing clouds.26 mph87%29.56 "HgN/A
7:50 AM48 °FPassing clouds.21 mph87%29.56 "HgN/A
7:20 AM46 °FLight rain. Passing clouds.24 mph87%29.56 "HgN/A
Weather by CustomWeather, © 2015

See weather overviewHow to use our weather pages